{"data":{"norad_id":57780,"intl_designator":"2023-134K","name":"STARLINK-30380","alt_names":[],"object_type":"PAYLOAD","status":"ACTIVE","operator":null,"country":"US","launch_date":"2023-09-04","launch_site_code":"AFETR","launch_vehicle":null,"mission":null,"orbit_class":"UNKNOWN","rcs_meters":null,"size_class":null,"mass_kg":null,"dimensions":null,"purposes":["comms"],"wikipedia_slug":null,"has_3d_model":false,"image_url":null,"decayed_at":null,"tle_current":{"epoch":"2026-05-24T23:16:09.857856Z","epoch_age_seconds":80715,"freshness":"FRESH","line1":"1 57780U 23134K   26144.96955854  .00000768  00000+0  37434-4 0  9993","line2":"2 57780  43.0020 123.6186 0001177 271.2454  88.8262 15.27580055151173","mean_motion":15.27580055,"eccentricity":0.0001177,"inclination_deg":43.002,"raan_deg":123.6186,"arg_perigee_deg":271.2454,"mean_anomaly_deg":88.8262,"bstar":3.7434e-5,"rev_number":15117,"period_min":94.266745319609,"perigee_km":482.24136976575,"apogee_km":483.85649293399,"semimajor_km":6861.1859313499,"source":"CELESTRAK","updated_at":"2026-05-25T13:38:18.405626Z"}}}